Content
SEND FEEDBACK

Daily
Averages
Monthly
Summary
Belgium

OOSTENDE, BELGIUM


Home > Europe > Belgium
Elevation: 16 feet     Latitude: 51 12N     Longitude: 002 52E

WEATHER
 
SELECT A DAY
Number of Records: 310,045;   Date Range: 7/1/96 - 9/8/14
 
SHARE

PRINT THIS DATA

[ ← Previous Day ]
WEATHER ALMANAC - FEBRUARY 13, 2013
[ Next Day → ]
[ °C ]   °F
Weather ElementAverageHighLow
Temperature29.2 °F34 °F (1:00 pm)21.2 °F (8:20 am)
Dewpoint21.4 °F25 °F (7:00 pm)17.6 °F (7:50 am)
Humidity72 %86 % (4:20 am)46 % (4:00 pm)
Barometer30.22 in30.29 in (1:00 pm)30.12 in (12:50 am)
Wind Speed5.6 mph15.7 mph (10:00 pm)
Weather ElementAverage
Visibility3.5 mi
Wind DirectionSE (129.6 °)

Weather ElementTotal
Precipitation---
Heating Degree Days37.4 (Base 65)
Averaged from 55 records on February 13, 2013
WEATHER CONDITIONS BREAKOUT
WIND DIRECTION BREAKOUT
WEATHER BY HOUR - FEBRUARY 13, 2013
[ °C ]   °F
Local TimeTemperatureDewpointHumidityBarometerVisibilityWind DirectionWind SpeedGust SpeedPrecipitationEventsConditions
12:50 AM28.4 °F21.2 °F74 %30.12 in4.3 miSE (130°)4.6 mphScattered Clouds
1:00 AM28.0 °F21.0 °F65 %30.15 in4.0 miSE (130°)4.5 mphPartly Cloudy
1:20 AM26.6 °F19.4 °F74 %30.15 in4.3 miVariable1.2 mphScattered Clouds
1:50 AM26.6 °F19.4 °F74 %30.15 in4.3 miSouth (170°)2.3 mphPartly Cloudy
2:20 AM24.8 °F19.4 °F80 %30.15 in3.7 miVariable1.2 mphPartly Cloudy
2:50 AM24.8 °F19.4 °F80 %30.15 in3.7 miNE (40°)3.5 mphPartly Cloudy
3:20 AM24.8 °F19.4 °F80 %30.15 in3.7 miENE (60°)2.3 mphPartly Cloudy
3:50 AM24.8 °F19.4 °F80 %30.18 in3.7 miENE (60°)2.3 mph
4:00 AM26.0 °F19.0 °F64 %30.19 in4.0 miENE (60°)2.2 mphClear
4:20 AM24.8 °F21.2 °F86 %30.18 in3.1 miVariable1.2 mphPartly Cloudy
4:50 AM23.0 °F19.4 °F86 %30.18 in2.8 miSW (220°)1.2 mphScattered Clouds
5:20 AM23.0 °F19.4 °F86 %30.18 in2.8 miWSW (250°)2.3 mphMostly Cloudy
5:50 AM23.0 °F19.4 °F86 %30.21 in2.8 miWSW (240°)3.5 mphMostly Cloudy
6:20 AM24.8 °F21.2 °F86 %30.21 in2.8 miVariable1.2 mphMostly Cloudy
6:50 AM23.0 °F19.4 °F86 %30.21 in2.8 miESE (110°)3.5 mphMostly Cloudy
7:00 AM23.0 °F19.0 °F77 %30.22 in3.0 miESE (110°)2.2 mphMist
7:20 AM23.0 °F19.4 °F86 %30.21 in2.8 miSSW (200°)1.2 mphMist
7:50 AM23.0 °F17.6 °F80 %30.21 in2.2 miSouth (190°)2.3 mphMist
8:20 AM21.2 °F17.6 °F86 %30.24 in2.2 miVariable1.2 mphMist
8:50 AM23.0 °F19.4 °F86 %30.24 in2.5 miCalmMist
9:20 AM26.6 °F23.0 °F86 %30.24 in2.5 miSouth (190°)1.2 mphMist
9:50 AM28.4 °F24.8 °F86 %30.27 in2.8 miCalmMist
10:00 AM29.0 °F24.0 °F75 %30.27 in3.0 miCalmMist
10:20 AM30.2 °F23.0 °F75 %30.27 in2.8 miVariable1.2 mphHaze
10:50 AM32.0 °F23.0 °F69 %30.27 in3.1 miVariable1.2 mphHaze
11:20 AM32.0 °F23.0 °F69 %30.27 in3.7 miVariable2.3 mph
11:50 AM33.8 °F21.2 °F60 %30.27 in3.7 miSouth (170°)3.5 mph
12:20 PM33.8 °F23.0 °F65 %30.27 in3.7 miSouth (190°)3.5 mph
12:50 PM33.8 °F21.2 °F60 %30.27 in3.7 miSSE (160°)3.5 mph
1:00 PM34.0 °F21.0 °F47 %30.29 in4.0 miSSE (160°)4.5 mphClear
1:20 PM33.8 °F21.2 °F60 %30.27 in3.7 miSouth (170°)6.9 mphPartly Cloudy
1:50 PM33.8 °F21.2 °F60 %30.27 in3.7 miSouth (180°)8.1 mphPartly Cloudy
2:20 PM33.8 °F21.2 °F60 %30.27 in3.7 miSouth (170°)8.1 mph
2:50 PM33.8 °F21.2 °F60 %30.27 in3.7 miSouth (170°)9.2 mph
3:20 PM33.8 °F23.0 °F65 %30.24 in3.7 miSSE (160°)9.2 mph
3:50 PM33.8 °F21.2 °F60 %30.24 in3.7 miSSE (160°)10.4 mph
4:00 PM34.0 °F21.0 °F46 %30.27 in4.0 miSSE (160°)11.2 mphClear
4:20 PM33.8 °F21.2 °F60 %30.24 in3.7 miSSE (160°)10.4 mph
4:50 PM33.8 °F23.0 °F65 %30.24 in3.1 miSSE (160°)8.1 mphHaze
5:20 PM32.0 °F23.0 °F69 %30.24 in3.1 miSSE (160°)6.9 mphHaze
5:50 PM32.0 °F23.0 °F69 %30.24 inSSE (150°)6.9 mphHaze
6:20 PM32.0 °F24.8 °F75 %30.24 in2.2 miSSE (150°)6.9 mphHaze
6:50 PM32.0 °F24.8 °F75 %30.27 in2.2 miSouth (180°)4.6 mphHaze
7:00 PM31.0 °F25.0 °F71 %30.27 in2.0 miSouth (180°)4.5 mphHaze
7:20 PM32.0 °F24.8 °F75 %30.24 in4.3 miSouth (180°)4.6 mph
7:50 PM32.0 °F24.8 °F75 %30.24 in4.3 miSouth (170°)6.9 mph
8:20 PM32.0 °F23.0 °F69 %30.24 in4.3 miSouth (170°)8.1 mph
8:50 PM30.2 °F23.0 °F75 %30.24 in5.6 miSouth (180°)9.2 mph
9:20 PM30.2 °F23.0 °F75 %30.24 in5.6 miSSE (160°)12.7 mph
9:50 PM30.2 °F21.2 °F69 %30.21 inSSE (160°)15.0 mphClear
10:00 PM31.0 °F21.0 °F55 %30.23 in6.0 miSSE (160°)15.7 mphMostly Cloudy
10:20 PM30.2 °F21.2 °F69 %30.21 inSouth (170°)12.7 mphClear
10:50 PM30.2 °F21.2 °F69 %30.18 inSSE (160°)15.0 mphClear
11:20 PM30.2 °F21.2 °F69 %30.18 inSouth (170°)15.0 mphClear
11:50 PM30.2 °F21.2 °F69 %30.18 inSouth (170°)15.0 mphClear
Hourly data recorded from EBOS, located miles away from Oostende, Belgium







STORIES FROM OUR PARTNERS